RUK99FV EGAA-EGCC

Flight info

Callsign RUK99FV
Flight time 0h 46m
Altitude 25000
Route LISBO L603 PEPOD Q38 MAKUX
Aircraft B738/M-SDE1E2E3FGIJ1LRWY/SB1

Departure

Time 2026-05-05 23:54
Airport Belfast International Airport (EGAA)

Arrival

Time 2026-05-06 00:41
Airport Manchester Airport (EGCC)
Time Latitude Longitude Altitude Speed Heading
2026-05-05 23:32 54.65920 -6.21955 272 ft 0 kts 334°
2026-05-05 23:51 54.65923 -6.21957 271 ft 1 kts 331°
2026-05-05 23:51 54.65928 -6.21980 273 ft 3 kts 272°
2026-05-05 23:51 54.65911 -6.22018 271 ft 6 kts 215°
2026-05-05 23:52 54.65864 -6.22017 271 ft 8 kts 163°
2026-05-05 23:52 54.65808 -6.22053 271 ft 11 kts 240°
2026-05-05 23:52 54.65778 -6.22187 275 ft 13 kts 256°
2026-05-05 23:52 54.65761 -6.22359 271 ft 16 kts 263°
2026-05-05 23:53 54.65751 -6.22544 274 ft 15 kts 265°
2026-05-05 23:53 54.65743 -6.22703 271 ft 11 kts 261°
2026-05-05 23:53 54.65694 -6.22795 271 ft 11 kts 187°
2026-05-05 23:53 54.65621 -6.22766 271 ft 11 kts 163°
2026-05-05 23:54 54.65447 -6.22669 271 ft 61 kts 162°
2026-05-05 23:54 54.64778 -6.22294 273 ft 138 kts 161°
2026-05-05 23:54 54.63721 -6.21689 684 ft 165 kts 161°
2026-05-05 23:54 54.62717 -6.20886 1769 ft 162 kts 144°
2026-05-05 23:55 54.61754 -6.19684 2367 ft 182 kts 141°
2026-05-05 23:55 54.60618 -6.18244 2518 ft 223 kts 142°
2026-05-05 23:55 54.59302 -6.16651 3037 ft 235 kts 144°
2026-05-05 23:55 54.57934 -6.15064 3754 ft 238 kts 145°
2026-05-05 23:56 54.56561 -6.13514 4501 ft 240 kts 146°
2026-05-05 23:56 54.55129 -6.11919 5222 ft 244 kts 147°
2026-05-05 23:56 54.53677 -6.10309 5760 ft 257 kts 147°
2026-05-05 23:56 54.52195 -6.08506 6288 ft 271 kts 137°
2026-05-05 23:57 54.50895 -6.06103 7132 ft 276 kts 130°
2026-05-05 23:57 54.49673 -6.03525 8038 ft 280 kts 129°
2026-05-05 23:57 54.48443 -6.00878 8894 ft 287 kts 128°
2026-05-05 23:57 54.47177 -5.98173 9746 ft 294 kts 129°
2026-05-05 23:58 54.45872 -5.95415 10476 ft 303 kts 129°
2026-05-05 23:58 54.44476 -5.92492 10722 ft 330 kts 129°
2026-05-05 23:58 54.42977 -5.89378 11274 ft 343 kts 130°
2026-05-05 23:58 54.41441 -5.86205 12067 ft 348 kts 130°
2026-05-05 23:59 54.39881 -5.82996 12914 ft 352 kts 130°
2026-05-05 23:59 54.38300 -5.79753 13722 ft 357 kts 130°
2026-05-05 23:59 54.36693 -5.76461 14452 ft 362 kts 130°
2026-05-05 23:59 54.35066 -5.73133 15201 ft 366 kts 130°
2026-05-06 00:00 54.33422 -5.69776 15955 ft 369 kts 131°
2026-05-06 00:00 54.31765 -5.66394 16744 ft 372 kts 131°
2026-05-06 00:00 54.30105 -5.63010 17677 ft 369 kts 131°
2026-05-06 00:00 54.28455 -5.59655 18612 ft 366 kts 131°
2026-05-06 00:01 54.26829 -5.56315 19431 ft 365 kts 129°
2026-05-06 00:01 54.25305 -5.52843 20208 ft 365 kts 127°
2026-05-06 00:01 54.23832 -5.49299 20820 ft 366 kts 126°
2026-05-06 00:01 54.22363 -5.45755 21084 ft 365 kts 127°
2026-05-06 00:02 54.20877 -5.42218 21064 ft 365 kts 127°
2026-05-06 00:02 54.19391 -5.38717 21075 ft 363 kts 127°
2026-05-06 00:02 54.17910 -5.35231 21081 ft 363 kts 127°
2026-05-06 00:02 54.16431 -5.31743 21078 ft 363 kts 127°
2026-05-06 00:03 54.14954 -5.28257 21078 ft 362 kts 127°
2026-05-06 00:03 54.13477 -5.24774 21079 ft 362 kts 127°
2026-05-06 00:03 54.11999 -5.21294 21081 ft 363 kts 127°
2026-05-06 00:03 54.10517 -5.17810 21078 ft 363 kts 127°
2026-05-06 00:04 54.09055 -5.14376 21073 ft 363 kts 127°
2026-05-06 00:04 54.07570 -5.10895 21070 ft 363 kts 127°
2026-05-06 00:04 54.06083 -5.07413 21069 ft 363 kts 127°
2026-05-06 00:04 54.04597 -5.03938 21070 ft 363 kts 127°
2026-05-06 00:05 54.01619 -4.96984 21073 ft 364 kts 127°
2026-05-06 00:05 54.00127 -4.93509 21079 ft 364 kts 127°
2026-05-06 00:05 53.98636 -4.90041 21077 ft 364 kts 127°
2026-05-06 00:06 53.97138 -4.86567 21073 ft 364 kts 127°
2026-05-06 00:06 53.95638 -4.83105 21070 ft 364 kts 127°
2026-05-06 00:06 53.94136 -4.79652 21072 ft 364 kts 128°
2026-05-06 00:06 53.92632 -4.76197 21072 ft 364 kts 128°
2026-05-06 00:07 53.91129 -4.72749 21073 ft 364 kts 128°
2026-05-06 00:07 53.89626 -4.69300 21072 ft 364 kts 128°
2026-05-06 00:07 53.88121 -4.65855 21066 ft 364 kts 128°
2026-05-06 00:07 53.86616 -4.62410 21070 ft 364 kts 128°
2026-05-06 00:08 53.85108 -4.58964 21069 ft 364 kts 128°
2026-05-06 00:08 53.83601 -4.55525 21067 ft 364 kts 128°
2026-05-06 00:08 53.82094 -4.52093 21067 ft 364 kts 128°
2026-05-06 00:08 53.80583 -4.48655 21067 ft 364 kts 128°
2026-05-06 00:09 53.79074 -4.45225 21066 ft 364 kts 128°
2026-05-06 00:09 53.77564 -4.41796 21063 ft 364 kts 128°
2026-05-06 00:09 53.76054 -4.38369 21062 ft 363 kts 128°
2026-05-06 00:09 53.74542 -4.34943 21062 ft 363 kts 128°
2026-05-06 00:10 53.73031 -4.31522 21063 ft 363 kts 128°
2026-05-06 00:10 53.71518 -4.28102 21065 ft 363 kts 128°
2026-05-06 00:10 53.70014 -4.24707 21049 ft 357 kts 128°
2026-05-06 00:10 53.68550 -4.21401 21047 ft 349 kts 128°
2026-05-06 00:11 53.67100 -4.18135 21057 ft 347 kts 128°
2026-05-06 00:11 53.65649 -4.14873 21068 ft 348 kts 128°
2026-05-06 00:11 53.64192 -4.11603 20881 ft 351 kts 127°
2026-05-06 00:11 53.62911 -4.08121 20600 ft 350 kts 116°
2026-05-06 00:12 53.61948 -4.04374 20287 ft 347 kts 113°
2026-05-06 00:12 53.61045 -4.00621 19954 ft 345 kts 112°
2026-05-06 00:12 53.60150 -3.96880 19621 ft 343 kts 112°
2026-05-06 00:12 53.59254 -3.93171 19297 ft 341 kts 113°
2026-05-06 00:13 53.58353 -3.89482 18971 ft 340 kts 113°
2026-05-06 00:13 53.57451 -3.85821 18640 ft 338 kts 113°
2026-05-06 00:13 53.56548 -3.82178 18311 ft 337 kts 113°
2026-05-06 00:13 53.55647 -3.78547 17936 ft 336 kts 113°
2026-05-06 00:14 53.54759 -3.74982 17594 ft 334 kts 113°
2026-05-06 00:14 53.53864 -3.71399 17264 ft 332 kts 113°
2026-05-06 00:14 53.52972 -3.67833 16909 ft 330 kts 113°
2026-05-06 00:14 53.52078 -3.64268 16498 ft 331 kts 113°
2026-05-06 00:15 53.51185 -3.60713 16098 ft 331 kts 113°
2026-05-06 00:15 53.50289 -3.57150 15691 ft 331 kts 113°
2026-05-06 00:15 53.49391 -3.53585 15288 ft 331 kts 113°
2026-05-06 00:15 53.48493 -3.50023 14886 ft 332 kts 113°
2026-05-06 00:16 53.47883 -3.47609 14615 ft 332 kts 113°
2026-05-06 00:16 53.46981 -3.44038 14210 ft 333 kts 113°
2026-05-06 00:16 53.46076 -3.40464 13805 ft 333 kts 113°
2026-05-06 00:16 53.45181 -3.36931 13356 ft 333 kts 113°
2026-05-06 00:17 53.44274 -3.33359 12930 ft 333 kts 112°
2026-05-06 00:17 53.43367 -3.29794 12512 ft 332 kts 112°
2026-05-06 00:17 53.42462 -3.26239 12095 ft 331 kts 112°
2026-05-06 00:17 53.41560 -3.22699 11700 ft 330 kts 112°
2026-05-06 00:18 53.40658 -3.19168 11293 ft 329 kts 112°
2026-05-06 00:18 53.39757 -3.15651 10901 ft 328 kts 112°
2026-05-06 00:18 53.38851 -3.12155 10502 ft 327 kts 114°
2026-05-06 00:18 53.37885 -3.08709 10111 ft 326 kts 115°
2026-05-06 00:19 53.36904 -3.05337 9996 ft 315 kts 115°
2026-05-06 00:19 53.35959 -3.02110 9965 ft 302 kts 115°
2026-05-06 00:19 53.35052 -2.99005 9887 ft 292 kts 115°
2026-05-06 00:19 53.34175 -2.95992 9719 ft 285 kts 115°
2026-05-06 00:20 53.33313 -2.93024 9420 ft 283 kts 115°
2026-05-06 00:20 53.32455 -2.90064 9126 ft 282 kts 115°
2026-05-06 00:20 53.31604 -2.87133 8841 ft 280 kts 115°
2026-05-06 00:20 53.30758 -2.84215 8562 ft 278 kts 115°
2026-05-06 00:21 53.29918 -2.81323 8297 ft 275 kts 115°
2026-05-06 00:21 53.29084 -2.78456 8015 ft 274 kts 115°
2026-05-06 00:21 53.28253 -2.75600 7730 ft 273 kts 115°
2026-05-06 00:21 53.27426 -2.72763 7500 ft 269 kts 115°
2026-05-06 00:22 53.26620 -2.70001 7411 ft 260 kts 115°
2026-05-06 00:22 53.25839 -2.67327 7305 ft 252 kts 115°
2026-05-06 00:22 53.25085 -2.64744 7229 ft 243 kts 115°
2026-05-06 00:22 53.24354 -2.62248 7123 ft 235 kts 115°
2026-05-06 00:23 53.23642 -2.59820 6949 ft 232 kts 115°
2026-05-06 00:23 53.22934 -2.57409 6703 ft 231 kts 115°
2026-05-06 00:23 53.22287 -2.54973 6455 ft 229 kts 101°
2026-05-06 00:23 53.22460 -2.52434 6151 ft 222 kts 57°
2026-05-06 00:24 53.23428 -2.50477 5908 ft 218 kts 46°
2026-05-06 00:24 53.24442 -2.48588 5639 ft 218 kts 46°
2026-05-06 00:24 53.25447 -2.46701 5408 ft 217 kts 47°
2026-05-06 00:24 53.26435 -2.44803 5174 ft 216 kts 47°
2026-05-06 00:25 53.27392 -2.42921 4943 ft 215 kts 48°
2026-05-06 00:25 53.28347 -2.41012 4695 ft 214 kts 48°
2026-05-06 00:25 53.29290 -2.39105 4476 ft 211 kts 49°
2026-05-06 00:25 53.30218 -2.37210 4236 ft 210 kts 49°
2026-05-06 00:26 53.31137 -2.35320 4003 ft 209 kts 49°
2026-05-06 00:26 53.32050 -2.33440 3776 ft 208 kts 49°
2026-05-06 00:26 53.32957 -2.31572 3551 ft 206 kts 50°
2026-05-06 00:26 53.33862 -2.29713 3311 ft 206 kts 50°
2026-05-06 00:27 53.34770 -2.27869 3128 ft 205 kts 50°
2026-05-06 00:27 53.35677 -2.26045 3085 ft 203 kts 50°
2026-05-06 00:27 53.36576 -2.24242 3078 ft 201 kts 50°
2026-05-06 00:27 53.37472 -2.22446 3081 ft 201 kts 50°
2026-05-06 00:28 53.38367 -2.20654 3072 ft 201 kts 50°
2026-05-06 00:28 53.39264 -2.18858 3074 ft 201 kts 50°
2026-05-06 00:28 53.40157 -2.17061 3079 ft 201 kts 50°
2026-05-06 00:28 53.41052 -2.15261 3084 ft 201 kts 50°
2026-05-06 00:29 53.41951 -2.13456 3087 ft 202 kts 49°
2026-05-06 00:29 53.42860 -2.11623 3093 ft 208 kts 49°
2026-05-06 00:29 53.43687 -2.09600 3083 ft 215 kts 70°
2026-05-06 00:29 53.43765 -2.07112 3083 ft 220 kts 102°
2026-05-06 00:30 53.42975 -2.04917 3079 ft 227 kts 135°
2026-05-06 00:30 53.41551 -2.03759 3079 ft 234 kts 168°
2026-05-06 00:30 53.39920 -2.03904 3073 ft 239 kts 195°
2026-05-06 00:30 53.38515 -2.05344 3093 ft 240 kts 226°
2026-05-06 00:31 53.37408 -2.07450 3083 ft 242 kts 230°
2026-05-06 00:31 53.36330 -2.09616 3079 ft 242 kts 231°
2026-05-06 00:31 53.35257 -2.11790 3072 ft 242 kts 231°
2026-05-06 00:31 53.34191 -2.13957 3070 ft 241 kts 231°
2026-05-06 00:32 53.33132 -2.16117 3076 ft 240 kts 231°
2026-05-06 00:32 53.32076 -2.18270 3079 ft 239 kts 231°
2026-05-06 00:32 53.31037 -2.20389 3082 ft 238 kts 231°
2026-05-06 00:32 53.29987 -2.22527 3078 ft 238 kts 231°
2026-05-06 00:33 53.28940 -2.24662 3076 ft 237 kts 231°
2026-05-06 00:33 53.27896 -2.26788 3081 ft 237 kts 231°
2026-05-06 00:33 53.26810 -2.28851 3073 ft 237 kts 219°
2026-05-06 00:33 53.25415 -2.30282 3082 ft 236 kts 216°
2026-05-06 00:34 53.24280 -2.32248 3095 ft 235 kts 231°
2026-05-06 00:34 53.23239 -2.34366 3076 ft 237 kts 231°
2026-05-06 00:34 53.22209 -2.36461 3068 ft 229 kts 231°
2026-05-06 00:34 53.21227 -2.38463 3058 ft 218 kts 231°
2026-05-06 00:35 53.20279 -2.40399 3067 ft 213 kts 231°
2026-05-06 00:35 53.19339 -2.42319 3083 ft 215 kts 231°
2026-05-06 00:35 53.18394 -2.44251 3086 ft 215 kts 231°
2026-05-06 00:35 53.17672 -2.46393 3055 ft 211 kts 263°
2026-05-06 00:36 53.17964 -2.48639 3061 ft 197 kts 310°
2026-05-06 00:36 53.18993 -2.50057 3100 ft 194 kts 326°
2026-05-06 00:36 53.20173 -2.51138 3077 ft 194 kts 346°
2026-05-06 00:36 53.21493 -2.51446 3081 ft 192 kts
2026-05-06 00:37 53.22786 -2.50993 3068 ft 189 kts 27°
2026-05-06 00:37 53.23825 -2.49705 3078 ft 185 kts 43°
2026-05-06 00:37 53.24754 -2.48227 2908 ft 182 kts 45°
2026-05-06 00:37 53.25615 -2.46741 2686 ft 178 kts 49°
2026-05-06 00:38 53.26416 -2.45154 2446 ft 174 kts 52°
2026-05-06 00:38 53.27170 -2.43593 2200 ft 171 kts 52°
2026-05-06 00:38 53.27899 -2.42076 1965 ft 162 kts 53°
2026-05-06 00:38 53.28576 -2.40668 1742 ft 150 kts 53°
2026-05-06 00:39 53.29222 -2.39321 1545 ft 148 kts 53°
2026-05-06 00:39 53.29843 -2.38034 1374 ft 140 kts 53°
2026-05-06 00:39 53.30452 -2.36767 1137 ft 139 kts 52°
2026-05-06 00:39 53.31059 -2.35507 921 ft 139 kts 52°
2026-05-06 00:40 53.31666 -2.34244 712 ft 140 kts 52°
2026-05-06 00:40 53.32278 -2.32974 529 ft 139 kts 52°
2026-05-06 00:40 53.32883 -2.31723 351 ft 138 kts 52°
2026-05-06 00:40 53.33487 -2.30476 240 ft 132 kts 52°
2026-05-06 00:41 53.33950 -2.29504 231 ft 77 kts 50°
2026-05-06 00:41 53.34180 -2.29035 232 ft 42 kts 51°
2026-05-06 00:41 53.34355 -2.28677 228 ft 38 kts 51°
2026-05-06 00:41 53.34511 -2.28357 230 ft 33 kts 51°
2026-05-06 00:42 53.34690 -2.28173 232 ft 29 kts 21°
2026-05-06 00:42 53.34872 -2.28045 232 ft 27 kts 36°
2026-05-06 00:42 53.34993 -2.27814 232 ft 26 kts 52°
2026-05-06 00:42 53.35102 -2.27589 232 ft 24 kts 51°
2026-05-06 00:43 53.35204 -2.27381 232 ft 23 kts 51°
2026-05-06 00:43 53.35302 -2.27179 232 ft 22 kts 51°
2026-05-06 00:43 53.35398 -2.26982 232 ft 21 kts 51°
2026-05-06 00:43 53.35490 -2.26792 232 ft 21 kts 51°
2026-05-06 00:44 53.35591 -2.26631 232 ft 20 kts 14°
2026-05-06 00:44 53.35728 -2.26654 242 ft 19 kts 350°
2026-05-06 00:44 53.35866 -2.26693 237 ft 21 kts 351°
2026-05-06 00:44 53.35917 -2.26824 233 ft 15 kts 271°
2026-05-06 00:45 53.35926 -2.26974 232 ft 1 kts 277°
2026-05-06 00:45 53.35926 -2.26975 232 ft 0 kts 277°